Simultaneous Nadir Overpasses (SNOs) Predictions

Prediction of SNOs between NOAA-19 and NPP Satellite Orbit:

Table of predicted SNOs for the next 14.0 days since TLE Epoch: 6/28/2014
Index Date (NOAA-19) Time (NOAA-19) Lat,Lon (NOAA-19) SZA (NOAA-19 ) Date (NPP) Time (NPP) Lat,Lon (NPP) SZA (NPP ) Distance(km) Time Diff (sec)
1 06/28/2014 20:46:19 -81.02, -5.63 118.22 06/28/2014 20:47:26 -81.01, -5.48 118.28 2.66 67
2 06/28/2014 21:37:20 81.01, 161.89 61.75 06/28/2014 21:38:11 81.01, 161.84 61.73 0.93 51
3 06/28/2014 22:28:22 -81.01, -30.92 118.25 06/28/2014 22:28:56 -81.01, -30.86 118.27 0.98 34
4 06/28/2014 23:19:22 81.00, 136.97 61.67 06/28/2014 23:19:40 81.00, 136.83 61.68 2.59 18
5 06/29/2014 00:10:24 -81.00, -55.84 118.33 06/29/2014 00:10:25 -81.00, -55.88 118.32 0.78 1
6 06/29/2014 01:01:26 81.00, 111.30 61.69 06/29/2014 01:01:10 81.00, 111.44 61.68 2.38 16
7 06/29/2014 01:52:26 -80.98, -80.76 118.41 06/29/2014 01:51:54 -80.99, -80.90 118.37 2.49 32
8 06/29/2014 02:43:28 80.99, 86.38 61.61 06/29/2014 02:42:39 80.99, 86.42 61.63 0.71 49
9 06/29/2014 03:34:30 -80.99,-106.42 118.39 06/29/2014 03:33:24 -80.99,-106.28 118.37 2.34 66
10 07/11/2014 16:39:02 -81.01, 56.50 117.00 07/11/2014 16:40:14 -81.01, 56.45 117.03 0.96 72
11 07/11/2014 17:30:01 81.02,-136.52 63.05 07/11/2014 17:30:59 81.01,-136.34 62.99 3.28 58
12 07/11/2014 18:21:05 -81.01, 31.20 117.02 07/11/2014 18:21:44 -81.01, 31.06 117.02 2.47 39
13 07/11/2014 19:12:03 81.01,-161.45
